Wind_Speed
29 27 31 36 37 35 33 30 30 28 31 29 27 24 21 21 20 21 18 13 17 14 5 14 16 13 10 7 10 5 6 9 14 9 2 6 8 5 3 3 7 6 0 3 21
30 29 27 29 37 38 35 32 29 30 28 30 27 25 22 20 19 25 26 23 15 18 17 10 15 11 10 7 7 8 10 12 4 3 0 6 9 7 5 8 8 8 4 13 19
31 29 29 29 31 36 37 34 31 29 28 30 27 26 23 19 17 26 27 25 20 12 15 11 12 14 14 8 10 14 14 5 1 3 1 2 8 6 8 8 10 11 13 17 21
32 30 31 29 29 34 34 34 33 30 27 29 28 27 24 20 9 4 29 27 24 21 13 13 12 9 3 11 17 11 17 6 5 1 2 2 1 6 14 5 2 6 17 19 22
31 31 32 30 27 31 32 33 33 30 29 29 29 28 25 24 23 5 2 22 24 24 19 17 18 14 10 12 18 17 11 7 8 11 7 2 3 7 11 14 6 6 15 19 20
32 31 32 29 26 28 32 32 33 31 28 29 29 29 25 23 22 20 3 13 24 23 20 20 15 16 12 8 16 14 17 12 13 8 2 7 4 2 1 7 7 11 14 17 20
33 31 32 29 25 28 31 31 32 31 29 28 31 30 29 34 15 23 23 1 27 24 20 19 12 17 8 9 13 16 19 13 13 19 12 13 16 8 3 1 9 11 13 15 18
33 32 32 28 25 27 30 30 28 25 26 24 28 30 17 31 14 19 25 16 19 21 18 18 13 15 3 3 7 10 11 18 17 13 11 16 21 14 7 6 9 12 14 15 19
33 31 32 28 26 25 28 29 27 23 23 20 24 29 26 19 32 20 24 22 17 18 13 14 13 7 6 5 9 14 12 21 18 15 13 17 17 23 7 4 8 12 14 16 17
33 32 32 28 25 24 26 27 25 21 18 17 22 16 14 41 28 28 24 21 23 21 13 12 10 10 6 11 14 16 19 7 17 13 7 16 19 16 15 13 11 11 15 16 17
33 32 32 28 27 26 27 25 14 10 28 17 14 13 10 22 29 32 33 29 22 26 12 15 11 21 21 16 13 11 15 20 11 2 10 17 18 21 30 31 25 18 16 18 19
33 32 31 30 29 28 27 21 24 6 10 29 26 18 23 28 22 38 39 26 16 13 25 8 20 22 17 20 18 7 17 19 5 6 6 14 21 19 27 30 30 29 24 20 17
33 33 31 32 30 27 29 27 15 10 6 17 39 36 24 29 25 38 48 19 22 21 27 24 16 23 19 18 21 20 17 16 8 7 5 7 20 21 24 32 32 32 32 27 20
34 34 33 31 29 24 26 26 11 15 5 9 13 20 23 32 10 47 52 31 13 25 26 22 21 27 20 21 19 21 9 14 9 8 5 6 8 17 18 22 23 33 34 35 29
36 35 34 35 21 29 22 18 22 9 8 8 17 13 33 17 19 30 48 20 13 21 14 13 21 22 24 23 19 4 9 6 3 2 1 7 5 8 13 18 19 22 34 38 35
38 35 32 29 18 24 17 22 19 7 10 8 11 18 23 35 16 27 18 16 21 20 18 10 6 17 18 15 15 16 10 11 6 1 7 15 10 10 13 19 15 19 24 34 37
38 36 34 26 17 24 23 23 8 8 3 5 9 21 21 16 22 16 7 16 11 12 13 9 11 4 10 19 16 13 12 3 6 5 6 2 11 16 16 15 12 14 19 23 32
36 33 27 24 19 22 26 6 14 10 16 1 4 24 24 14 22 29 22 17 11 20 18 14 6 15 10 17 10 15 18 7 8 10 8 3 10 4 8 17 16 21 19 15 17
35 30 28 23 22 26 16 7 13 7 3 6 6 19 11 17 8 22 22 23 15 19 12 15 6 4 12 9 16 4 9 2 2 1 2 7 9 8 12 11 17 17 14 20 18
36 28 21 24 24 24 8 15 6 6 2 4 17 18 17 18 14 19 19 21 20 24 13 15 7 1 2 7 1 14 10 2 2 5 7 8 11 7 6 8 8 5 11 10 11
30 13 18 23 25 16 10 11 17 14 5 3 10 7 14 12 15 24 24 16 27 27 15 19 9 2 8 8 9 8 7 6 3 6 4 4 5 4 6 4 1 3 4 4 5
18 5 20 32 8 6 11 15 15 11 10 7 5 11 11 29 19 16 21 18 36 25 24 7 7 7 3 2 10 12 11 14 6 7 5 5 8 5 7 5 8 5 6 9 14
17 7 22 34 8 11 12 21 13 9 8 7 5 18 13 16 14 17 19 12 32 23 21 10 7 7 4 2 0 9 17 17 10 2 13 6 8 5 7 4 3 2 3 8 15
13 5 9 22 15 16 17 12 15 14 11 7 7 22 16 17 10 16 16 14 32 25 21 12 10 14 16 19 10 9 16 18 17 6 13 17 17 9 7 5 5 5 7 15 16
4 5 12 11 13 14 17 11 13 7 11 12 5 17 13 7 7 10 14 11 14 20 9 6 5 7 2 12 18 18 22 20 22 29 14 24 24 16 14 13 16 17 21 20 20
7 5 7 0 17 19 13 14 15 14 10 6 14 15 22 17 15 27 26 20 18 8 13 4 4 7 2 10 14 16 20 23 27 29 22 26 24 10 17 13 8 12 17 23 21
7 10 8 7 10 12 16 13 15 7 10 15 17 17 23 15 7 21 11 10 20 22 17 13 7 3 5 10 8 2 24 26 25 24 28 20 31 9 8 8 14 15 18 19 19
Wind_Direction
236 233 231 226 226 226 225 225 226 226 221 223 221 218 220 222 232 241 236 230 231 227 224 222 221 225 227 241 225 251 232 226 229 222 231 154 186 175 206 151 191 188 198 129 172
232 234 235 226 222 223 225 226 226 226 222 221 219 214 218 221 230 243 240 238 231 227 227 231 217 215 212 235 216 224 220 229 354 350 356 174 216 177 194 195 206 190 156 150 174
227 227 229 229 224 223 223 226 227 224 220 219 216 213 216 214 231 244 239 238 230 214 209 215 214 198 228 208 217 219 230 217 108 250 5 171 215 203 226 219 230 211 181 172 176
223 221 224 227 222 221 220 221 224 224 218 216 214 213 212 203 225 280 238 239 229 220 204 193 185 170 260 224 217 242 232 226 159 138 123 135 1 231 233 223 290 223 188 183 186
219 219 219 222 220 218 217 217 217 220 221 218 215 214 201 208 215 157 300 225 221 217 207 196 191 187 194 220 225 221 191 206 167 115 61 31 248 265 263 246 258 178 180 189 192
218 217 215 218 217 215 213 214 215 218 218 216 212 212 202 224 223 226 276 190 198 206 206 201 209 203 205 225 221 215 221 193 187 187 191 349 327 287 63 239 222 189 189 194 196
218 216 214 215 213 210 210 213 216 220 223 222 219 216 208 220 215 218 216 208 199 203 207 205 207 199 205 206 228 241 213 208 226 219 211 253 285 236 307 257 230 220 204 199 202
215 214 210 210 209 206 207 210 215 218 221 221 215 217 229 211 192 205 207 212 186 202 209 207 212 210 201 152 185 208 237 222 215 205 206 197 237 244 334 277 256 235 225 210 209
213 211 207 205 206 203 202 204 210 212 210 214 209 214 234 185 204 199 203 189 186 185 192 195 197 193 166 194 186 209 221 223 225 208 215 211 240 240 240 268 269 264 234 224 219
210 209 205 202 201 202 196 198 201 210 205 212 216 223 234 213 204 197 198 183 168 172 176 192 201 194 179 201 201 200 214 221 222 187 231 218 234 248 234 247 274 272 255 237 229
209 207 203 199 198 199 192 184 176 198 200 192 199 213 165 203 192 188 184 181 173 172 183 192 199 207 197 204 226 210 210 214 216 211 214 236 249 250 249 253 253 253 257 250 237
205 200 198 196 197 197 191 188 192 200 209 219 229 228 224 184 184 187 175 174 178 180 187 175 218 205 207 192 210 208 218 212 242 96 220 240 246 244 250 250 247 247 250 251 243
196 195 194 193 192 195 195 194 203 202 224 215 220 221 220 183 190 178 176 170 183 181 192 204 208 211 210 199 205 211 223 216 195 167 229 276 264 256 253 256 254 248 247 245 247
192 192 189 185 187 189 197 199 169 204 249 226 202 222 216 200 231 185 182 184 196 189 193 215 211 194 205 207 204 212 207 230 132 166 229 183 283 257 249 245 240 240 238 235 235
190 189 187 188 182 188 193 187 196 182 221 196 186 193 198 200 147 190 174 181 183 173 168 186 197 194 197 203 199 212 161 172 130 207 325 199 252 271 237 246 242 241 228 226 228
183 182 177 173 166 179 173 177 171 199 231 168 160 176 181 190 189 161 179 162 178 167 193 163 223 183 202 190 181 132 102 71 55 49 248 231 216 246 246 248 248 251 246 226 220
179 178 178 171 154 164 160 151 192 213 106 221 200 169 195 177 181 187 179 167 171 157 163 150 166 130 208 182 144 142 151 125 203 217 237 82 216 249 293 267 291 278 254 242 228
177 178 175 177 162 157 156 145 211 223 222 224 252 184 182 171 190 185 178 174 177 176 159 166 175 175 187 175 176 174 185 194 217 222 254 144 239 242 244 265 269 252 254 258 238
176 177 175 174 170 173 161 203 209 196 227 208 245 182 174 172 170 178 181 178 171 182 163 170 130 93 169 154 158 180 205 216 112 133 269 212 241 249 246 262 264 252 252 247 245
166 166 165 174 170 168 178 215 203 218 154 342 211 194 174 172 172 181 177 184 174 189 183 177 121 11 131 98 123 188 142 113 237 207 241 236 237 245 260 257 301 289 262 266 273
149 140 186 179 172 172 201 220 223 215 134 244 243 227 189 170 164 185 188 178 179 190 171 167 134 177 151 201 164 153 183 207 199 242 259 272 241 145 188 30 310 352 4 12 339
138 156 181 173 165 195 217 206 219 222 194 228 306 243 211 185 167 185 179 184 183 179 171 138 129 145 161 339 199 211 189 197 205 196 244 323 251 168 152 103 100 62 73 38 22
128 135 169 174 186 199 221 215 223 210 204 194 268 233 197 175 178 198 181 180 169 170 165 164 141 120 115 27 19 198 202 203 205 33 217 215 253 230 185 233 172 136 22 8 2
142 135 159 202 229 209 202 215 209 213 222 171 269 300 190 191 167 176 150 178 172 180 152 148 167 182 191 188 129 184 193 202 208 206 221 224 240 164 152 158 198 253 329 321 325
142 148 174 189 212 213 191 207 202 205 204 168 256 232 214 160 161 160 131 136 169 181 149 160 141 189 201 180 169 184 185 185 202 224 206 239 241 238 267 281 291 291 307 306 302
134 149 168 163 202 210 211 210 198 219 178 184 228 269 203 175 186 172 154 162 169 178 171 226 125 122 57 155 181 190 192 199 213 228 232 252 266 272 267 265 266 275 286 286 289
178 162 169 171 190 199 216 196 201 181 217 226 212 249 211 182 204 161 136 128 172 166 169 174 139 124 142 153 133 241 210 201 215 219 220 233 240 269 278 278 270 275 276 271 286
Height
1450 1453 1458 1463 1466 1471 1476 1480 1484 1489 1494 1499 1503 1506 1510 1512 1514 1516 1518 1525 1525 1528 1530 1533 1536 1538 1539 1541 1540 1539 1537 1533 1530 1530 1528 1534 1536 1539 1540 1542 1544 1545 1546 1548 1548
1445 1448 1451 1456 1461 1466 1471 1475 1480 1485 1490 1496 1501 1504 1508 1510 1513 1511 1515 1520 1524 1527 1529 1532 1534 1537 1540 1539 1539 1538 1533 1529 1529 1529 1529 1534 1536 1539 1541 1542 1543 1544 1546 1547 1547
1441 1443 1447 1450 1454 1460 1467 1471 1476 1481 1486 1493 1498 1502 1506 1509 1512 1505 1510 1515 1522 1525 1528 1532 1534 1537 1538 1538 1537 1534 1530 1529 1534 1536 1535 1534 1537 1538 1539 1539 1539 1542 1545 1546 1546
1436 1439 1443 1447 1450 1455 1461 1467 1472 1477 1483 1489 1495 1500 1503 1508 1508 1502 1505 1511 1520 1524 1527 1529 1532 1535 1538 1534 1532 1533 1531 1533 1537 1537 1536 1536 1537 1538 1539 1538 1539 1540 1542 1544 1544
1431 1435 1439 1444 1447 1451 1456 1462 1468 1473 1478 1485 1492 1497 1500 1502 1498 1500 1503 1507 1516 1521 1523 1527 1530 1534 1535 1532 1530 1529 1531 1536 1537 1536 1538 1538 1537 1538 1536 1537 1538 1540 1540 1542 1544
1425 1429 1434 1438 1442 1446 1451 1458 1464 1470 1476 1483 1489 1493 1497 1493 1496 1501 1503 1504 1511 1518 1521 1525 1527 1531 1531 1529 1528 1529 1531 1533 1535 1535 1537 1539 1538 1539 1535 1535 1538 1539 1540 1542 1543
1419 1424 1429 1433 1438 1442 1447 1453 1460 1467 1473 1479 1486 1489 1488 1483 1492 1498 1503 1504 1509 1517 1522 1524 1528 1530 1527 1528 1529 1530 1529 1530 1532 1532 1535 1542 1538 1537 1534 1535 1537 1539 1539 1541 1543
1413 1418 1424 1429 1433 1438 1444 1451 1458 1465 1471 1477 1483 1488 1478 1485 1491 1494 1500 1504 1510 1517 1523 1526 1527 1528 1526 1528 1528 1529 1530 1528 1527 1531 1533 1540 1538 1530 1533 1534 1535 1536 1538 1539 1541
1406 1412 1419 1425 1429 1434 1441 1449 1457 1463 1470 1474 1480 1482 1478 1475 1484 1490 1497 1502 1508 1515 1520 1523 1526 1525 1526 1526 1527 1524 1525 1526 1524 1528 1530 1532 1529 1528 1532 1533 1533 1533 1534 1536 1538
1401 1407 1414 1419 1425 1431 1439 1448 1455 1461 1466 1472 1475 1481 1473 1468 1480 1486 1496 1502 1506 1513 1519 1523 1522 1519 1523 1520 1519 1519 1525 1524 1524 1525 1528 1527 1526 1525 1527 1530 1531 1531 1531 1532 1534
1395 1402 1408 1415 1422 1429 1438 1443 1452 1456 1456 1451 1455 1461 1462 1469 1478 1481 1491 1498 1504 1507 1511 1517 1517 1505 1509 1516 1515 1515 1519 1522 1518 1521 1524 1525 1523 1524 1523 1523 1525 1527 1528 1529 1530
1390 1397 1404 1412 1419 1427 1432 1435 1441 1449 1453 1455 1459 1461 1467 1468 1471 1476 1485 1491 1493 1497 1506 1513 1501 1503 1508 1511 1517 1519 1520 1519 1518 1523 1526 1521 1518 1516 1516 1516 1517 1520 1521 1523 1526
1385 1394 1402 1410 1418 1424 1427 1435 1443 1447 1449 1447 1449 1455 1461 1465 1464 1466 1474 1477 1484 1489 1491 1492 1495 1505 1504 1506 1514 1513 1517 1511 1515 1525 1529 1527 1517 1511 1509 1511 1511 1511 1514 1517 1520
1382 1390 1399 1408 1418 1421 1427 1435 1443 1449 1449 1438 1444 1444 1457 1458 1459 1461 1465 1476 1477 1476 1486 1493 1493 1494 1499 1503 1507 1513 1513 1512 1521 1524 1532 1526 1524 1501 1497 1496 1498 1500 1504 1507 1513
1380 1388 1397 1405 1412 1417 1427 1434 1443 1449 1442 1427 1433 1438 1443 1449 1449 1454 1459 1467 1464 1464 1478 1484 1481 1489 1495 1500 1507 1511 1513 1516 1522 1532 1539 1532 1540 1496 1489 1489 1484 1486 1490 1494 1502
1378 1387 1396 1404 1410 1418 1425 1433 1443 1448 1422 1422 1423 1425 1435 1444 1445 1450 1449 1459 1466 1467 1474 1481 1483 1486 1491 1498 1503 1515 1522 1530 1542 1543 1534 1517 1524 1489 1484 1479 1479 1482 1484 1485 1490
1377 1385 1394 1400 1408 1414 1423 1431 1443 1427 1429 1424 1416 1418 1425 1426 1439 1440 1440 1444 1452 1457 1472 1479 1483 1486 1488 1495 1507 1508 1516 1533 1539 1535 1514 1504 1509 1492 1476 1475 1474 1476 1479 1482 1485
1376 1386 1393 1401 1407 1414 1421 1432 1430 1415 1418 1421 1416 1414 1411 1422 1428 1437 1439 1438 1448 1449 1456 1472 1491 1483 1483 1486 1500 1504 1500 1503 1518 1511 1495 1512 1498 1479 1473 1471 1472 1474 1476 1478 1479
1376 1385 1393 1398 1405 1412 1418 1419 1411 1409 1412 1418 1415 1406 1408 1418 1423 1428 1429 1431 1432 1430 1445 1457 1478 1487 1482 1485 1492 1509 1502 1497 1510 1530 1508 1487 1479 1475 1468 1470 1469 1468 1471 1473 1476
1373 1384 1390 1395 1403 1410 1416 1409 1412 1411 1417 1417 1408 1398 1400 1410 1415 1416 1423 1421 1422 1425 1430 1441 1474 1487 1488 1487 1496 1492 1499 1515 1510 1512 1503 1471 1473 1470 1465 1464 1462 1464 1468 1471 1474
1372 1383 1389 1395 1403 1409 1405 1403 1404 1407 1410 1418 1401 1396 1387 1399 1402 1408 1412 1419 1414 1421 1427 1434 1451 1489 1488 1489 1489 1493 1497 1493 1491 1489 1486 1481 1463 1451 1458 1466 1465 1466 1468 1468 1470
1369 1381 1384 1390 1402 1402 1397 1395 1399 1400 1406 1415 1411 1397 1387 1380 1388 1400 1401 1399 1407 1416 1424 1432 1445 1475 1482 1488 1485 1482 1486 1487 1489 1494 1492 1490 1474 1458 1460 1463 1464 1466 1468 1466 1466
1369 1379 1383 1388 1388 1393 1390 1392 1395 1397 1400 1404 1405 1393 1379 1380 1387 1394 1395 1398 1407 1414 1417 1432 1451 1476 1490 1491 1489 1481 1478 1479 1477 1489 1486 1491 1462 1451 1455 1461 1461 1464 1465 1466 1464
1364 1373 1383 1386 1382 1382 1387 1385 1390 1392 1394 1398 1400 1395 1379 1377 1377 1387 1395 1401 1406 1415 1417 1427 1439 1439 1442 1441 1465 1476 1475 1479 1479 1488 1473 1471 1453 1455 1455 1457 1460 1461 1462 1463 1464
1355 1362 1366 1371 1375 1375 1378 1378 1382 1386 1389 1392 1394 1392 1375 1385 1383 1385 1395 1406 1413 1417 1422 1424 1438 1435 1431 1434 1450 1458 1465 1473 1476 1457 1469 1447 1448 1452 1453 1454 1455 1457 1459 1461 1461
1353 1358 1364 1365 1371 1375 1372 1373 1377 1382 1386 1388 1390 1381 1368 1362 1356 1363 1370 1388 1401 1420 1421 1420 1436 1438 1450 1442 1445 1454 1460 1466 1463 1452 1463 1448 1445 1451 1452 1454 1458 1459 1459 1458 1456
1350 1354 1358 1362 1364 1370 1363 1365 1369 1376 1377 1376 1379 1382 1366 1364 1363 1374 1384 1386 1389 1392 1409 1421 1429 1440 1453 1449 1455 1462 1445 1448 1448 1453 1447 1456 1428 1449 1450 1454 1455 1454 1454 1454 1454